Time,TemperatureF,DewpointF,PressureIn,WindDirection,WindDirectionDegrees,WindSpeedMPH,WindSpeedGustMPH,Humidity,HourlyPrecipIn,Conditions,Clouds,dailyrainin,SoftwareType,DateUTC
2013-02-10 00:01:00,38.5,21.9,28.94,ENE,68,12.8,15.0,51,0.00,CLR,,0.00,WeatherDisplay:10.37,2013-02-10 09:01:00,
2013-02-10 00:06:00,38.5,21.9,28.94,NNE,22,5.4,12.7,51,0.00,CLR,,0.00,WeatherDisplay:10.37,2013-02-10 09:06:00,
2013-02-10 00:11:00,38.7,22.1,28.91,SSE,158,4.3,8.7,51,0.00,CLR,,0.00,WeatherDisplay:10.37,2013-02-10 09:11:00,
2013-02-10 00:16:00,38.5,21.9,28.91,South,180,10.9,23.0,51,0.00,CLR,,0.00,WeatherDisplay:10.37,2013-02-10 09:16:00,
2013-02-10 00:21:00,38.5,21.9,28.91,SSE,158,11.2,12.7,51,0.00,CLR,,0.00,WeatherDisplay:10.37,2013-02-10 09:21:00,
2013-02-10 00:26:00,38.3,22.2,28.94,South,180,10.2,12.7,52,0.00,CLR,,0.00,WeatherDisplay:10.37,2013-02-10 09:26:00,
2013-02-10 00:31:00,38.1,22.0,28.94,SSW,202,6.4,13.0,52,0.00,CLR,,0.00,WeatherDisplay:10.37,2013-02-10 09:31:00,
2013-02-10 00:36:00,38.5,21.9,28.94,South,180,12.5,12.7,51,0.00,CLR,,0.00,WeatherDisplay:10.37,2013-02-10 09:36:00,
2013-02-10 00:41:00,38.7,22.5,28.94,SW,225,17.0,20.7,52,0.00,CLR,,0.00,WeatherDisplay:10.37,2013-02-10 09:41:00,
2013-02-10 00:46:00,38.5,22.4,28.94,SSW,202,7.4,8.1,52,0.00,CLR,,0.00,WeatherDisplay:10.37,2013-02-10 09:46:00,
2013-02-10 00:51:00,38.5,21.9,28.94,SSW,202,7.1,8.1,51,0.00,CLR,,0.00,WeatherDisplay:10.37,2013-02-10 09:51:00,
2013-02-10 00:56:00,38.5,22.4,28.94,WSW,248,5.4,8.1,52,0.00,CLR,,0.00,WeatherDisplay:10.37,2013-02-10 09:56:00,
2013-02-10 01:01:00,38.3,22.2,28.94,WSW,248,6.9,10.4,52,0.00,CLR,,0.00,WeatherDisplay:10.37,2013-02-10 10:01:00,
2013-02-10 01:06:00,38.5,22.4,28.94,SSW,202,13.7,17.3,52,0.00,CLR,,0.00,WeatherDisplay:10.37,2013-02-10 10:06:00,
2013-02-10 01:11:00,38.3,22.2,28.94,South,180,3.8,8.1,52,0.00,CLR,,0.00,WeatherDisplay:10.37,2013-02-10 10:11:00,
2013-02-10 01:16:00,38.7,22.5,28.94,North,0,17.5,24.2,52,0.00,CLR,,0.00,WeatherDisplay:10.37,2013-02-10 10:16:00,
2013-02-10 01:21:00,38.8,22.2,28.94,SSW,202,17.3,25.3,51,0.00,CLR,,0.00,WeatherDisplay:10.37,2013-02-10 10:21:00,
2013-02-10 01:26:00,38.8,22.7,28.91,South,180,12.1,15.0,52,0.00,CLR,,0.00,WeatherDisplay:10.37,2013-02-10 10:26:00,
2013-02-10 01:31:00,38.5,22.4,28.91,SSW,202,11.2,15.0,52,0.00,CLR,,0.00,WeatherDisplay:10.37,2013-02-10 10:31:00,
2013-02-10 01:36:00,38.3,22.2,28.91,SW,225,10.2,16.1,52,0.00,CLR,,0.00,WeatherDisplay:10.37,2013-02-10 10:36:00,
2013-02-10 01:41:00,38.1,22.0,28.94,SSW,202,13.7,13.8,52,0.00,CLR,,0.00,WeatherDisplay:10.37,2013-02-10 10:41:00,
2013-02-10 01:46:00,38.5,22.4,28.94,South,180,9.7,15.0,52,0.00,CLR,,0.00,WeatherDisplay:10.37,2013-02-10 10:46:00,
2013-02-10 01:51:00,38.3,22.2,28.94,SSW,202,10.5,13.8,52,0.00,CLR,,0.00,WeatherDisplay:10.37,2013-02-10 10:51:00,
2013-02-10 01:56:00,38.1,22.0,28.91,SSW,202,9.7,13.8,52,0.00,CLR,,0.00,WeatherDisplay:10.37,2013-02-10 10:56:00,
2013-02-10 02:01:00,38.1,22.0,28.91,SSW,202,7.8,14.7,52,0.00,CLR,,0.00,WeatherDisplay:10.37,2013-02-10 11:01:00,
2013-02-10 02:06:00,38.5,22.4,28.91,SSW,202,9.7,17.3,52,0.00,CLR,,0.00,WeatherDisplay:10.37,2013-02-10 11:06:00,
2013-02-10 02:11:00,38.5,22.4,28.88,SSW,202,7.8,12.7,52,0.00,CLR,,0.00,WeatherDisplay:10.37,2013-02-10 11:11:00,
2013-02-10 02:16:00,38.1,22.0,28.88,SSW,202,11.4,15.0,52,0.00,CLR,,0.00,WeatherDisplay:10.37,2013-02-10 11:16:00,
2013-02-10 02:21:00,38.1,22.0,28.88,SSE,158,10.2,10.4,52,0.00,CLR,,0.00,WeatherDisplay:10.37,2013-02-10 11:21:00,
2013-02-10 02:26:00,38.5,22.4,28.88,South,180,9.8,13.2,52,0.00,CLR,,0.00,WeatherDisplay:10.37,2013-02-10 11:26:00,
2013-02-10 02:31:00,38.7,22.1,28.88,ESE,112,18.7,23.0,51,0.00,CLR,,0.00,WeatherDisplay:10.37,2013-02-10 11:31:00,
2013-02-10 02:36:00,39.0,22.4,28.88,SW,225,10.0,20.7,51,0.00,CLR,,0.00,WeatherDisplay:10.37,2013-02-10 11:36:00,
2013-02-10 02:41:00,39.2,22.1,28.91,SSE,158,14.5,14.5,50,0.00,CLR,,0.00,WeatherDisplay:10.37,2013-02-10 11:41:00,
2013-02-10 02:46:00,39.4,22.3,28.91,SSE,158,18.1,24.2,50,0.00,CLR,,0.00,WeatherDisplay:10.37,2013-02-10 11:46:00,
2013-02-10 02:51:00,39.2,22.1,28.91,SSE,158,9.8,19.2,50,0.00,CLR,,0.00,WeatherDisplay:10.37,2013-02-10 11:51:00,
2013-02-10 02:56:00,39.2,22.1,28.91,South,180,13.8,24.2,50,0.00,CLR,,0.00,WeatherDisplay:10.37,2013-02-10 11:56:00,
2013-02-10 03:01:00,39.2,22.6,28.91,SSE,158,17.8,25.3,51,0.00,CLR,,0.00,WeatherDisplay:10.37,2013-02-10 12:01:00,
2013-02-10 03:06:00,39.2,22.6,28.91,SSE,158,17.0,20.7,51,0.00,CLR,,0.00,WeatherDisplay:10.37,2013-02-10 12:06:00,
2013-02-10 03:11:00,39.0,22.4,28.88,SSE,158,12.5,16.1,51,0.00,CLR,,0.00,WeatherDisplay:10.37,2013-02-10 12:11:00,
2013-02-10 03:17:00,39.0,22.4,28.88,SSE,158,15.9,17.3,51,0.00,CLR,,0.00,WeatherDisplay:10.37,2013-02-10 12:17:00,
2013-02-10 03:22:00,39.2,22.6,28.88,SSW,202,18.7,18.7,51,0.00,CLR,,0.00,WeatherDisplay:10.37,2013-02-10 12:22:00,
2013-02-10 03:27:00,39.4,22.7,28.88,South,180,20.6,27.6,51,0.00,CLR,,0.00,WeatherDisplay:10.37,2013-02-10 12:27:00,
2013-02-10 03:32:00,39.2,22.6,28.88,SSW,202,17.6,19.6,51,0.00,CLR,,0.00,WeatherDisplay:10.37,2013-02-10 12:32:00,
2013-02-10 03:37:00,39.2,22.6,28.88,SSW,202,15.9,15.9,51,0.00,CLR,,0.00,WeatherDisplay:10.37,2013-02-10 12:37:00,
2013-02-10 03:42:00,39.0,22.9,28.88,South,180,17.3,23.0,52,0.00,CLR,,0.00,WeatherDisplay:10.37,2013-02-10 12:42:00,
2013-02-10 03:47:00,38.8,22.7,28.88,SSE,158,11.8,15.0,52,0.00,CLR,,0.00,WeatherDisplay:10.37,2013-02-10 12:47:00,
2013-02-10 03:52:00,38.8,22.7,28.88,SSW,202,13.5,15.4,52,0.00,CLR,,0.00,WeatherDisplay:10.37,2013-02-10 12:52:00,
2013-02-10 03:57:00,38.8,22.7,28.88,South,180,13.8,20.7,52,0.00,CLR,,0.00,WeatherDisplay:10.37,2013-02-10 12:57:00,
2013-02-10 04:02:00,38.8,22.7,28.88,SW,225,13.7,15.0,52,0.00,CLR,,0.00,WeatherDisplay:10.37,2013-02-10 13:02:00,
2013-02-10 04:07:00,38.8,22.7,28.88,SSW,202,18.7,26.5,52,0.00,CLR,,0.00,WeatherDisplay:10.37,2013-02-10 13:07:00,
2013-02-10 04:12:00,38.8,22.7,28.88,SSE,158,16.1,24.2,52,0.00,CLR,,0.00,WeatherDisplay:10.37,2013-02-10 13:12:00,
2013-02-10 04:17:00,38.8,22.7,28.88,SSW,202,14.5,24.2,52,0.00,CLR,,0.00,WeatherDisplay:10.37,2013-02-10 13:17:00,
2013-02-10 04:22:00,39.0,22.9,28.88,South,180,15.2,23.0,52,0.00,CLR,,0.00,WeatherDisplay:10.37,2013-02-10 13:22:00,
2013-02-10 04:27:00,39.0,22.9,28.85,SSW,202,19.2,23.0,52,0.00,CLR,,0.00,WeatherDisplay:10.37,2013-02-10 13:27:00,
2013-02-10 04:32:00,38.8,23.2,28.85,SSW,202,13.8,20.7,53,0.00,CLR,,0.00,WeatherDisplay:10.37,2013-02-10 13:32:00,
2013-02-10 04:37:00,38.8,23.2,28.85,South,180,12.3,13.8,53,0.00,CLR,,0.00,WeatherDisplay:10.37,2013-02-10 13:37:00,
2013-02-10 04:42:00,38.5,22.8,28.85,SSW,202,10.9,13.8,53,0.00,CLR,,0.00,WeatherDisplay:10.37,2013-02-10 13:42:00,
2013-02-10 04:47:00,38.5,22.8,28.85,SSW,202,15.6,19.6,53,0.00,CLR,,0.00,WeatherDisplay:10.37,2013-02-10 13:47:00,
2013-02-10 04:52:00,38.5,22.8,28.85,South,180,13.5,17.3,53,0.00,CLR,,0.00,WeatherDisplay:10.37,2013-02-10 13:52:00,
2013-02-10 04:57:00,38.5,23.3,28.85,WSW,248,11.2,15.4,54,0.00,CLR,,0.00,WeatherDisplay:10.37,2013-02-10 13:57:00,
2013-02-10 05:02:00,38.3,23.1,28.85,South,180,13.5,15.0,54,0.00,CLR,,0.00,WeatherDisplay:10.37,2013-02-10 14:02:00,
2013-02-10 05:07:00,38.7,23.0,28.85,SSW,202,12.5,13.8,53,0.00,CLR,,0.00,WeatherDisplay:10.37,2013-02-10 14:07:00,
2013-02-10 05:12:00,39.2,23.0,28.88,SE,135,18.1,23.0,52,0.00,CLR,,0.00,WeatherDisplay:10.37,2013-02-10 14:12:00,
2013-02-10 05:17:00,39.4,23.2,28.88,SSW,202,13.8,16.8,52,0.00,CLR,,0.00,WeatherDisplay:10.37,2013-02-10 14:17:00,
2013-02-10 05:22:00,39.4,23.2,28.88,South,180,12.8,13.8,52,0.00,CLR,,0.00,WeatherDisplay:10.37,2013-02-10 14:22:00,
2013-02-10 05:27:00,39.4,22.7,28.88,SE,135,15.6,17.3,51,0.00,CLR,,0.00,WeatherDisplay:10.37,2013-02-10 14:27:00,
2013-02-10 05:32:00,39.4,23.2,28.88,SSW,202,10.2,11.8,52,0.00,CLR,,0.00,WeatherDisplay:10.37,2013-02-10 14:32:00,
2013-02-10 05:37:00,39.2,23.0,28.88,SSE,158,9.0,12.7,52,0.00,CLR,,0.00,WeatherDisplay:10.37,2013-02-10 14:37:00,
2013-02-10 05:42:00,39.4,22.7,28.85,SSW,202,15.6,26.5,51,0.00,CLR,,0.00,WeatherDisplay:10.37,2013-02-10 14:42:00,
2013-02-10 05:47:00,39.4,22.7,28.85,South,180,11.2,13.8,51,0.00,CLR,,0.00,WeatherDisplay:10.37,2013-02-10 14:47:00,
2013-02-10 05:52:00,39.4,22.7,28.85,SSW,202,16.3,23.0,51,0.00,CLR,,0.00,WeatherDisplay:10.37,2013-02-10 14:52:00,
2013-02-10 05:57:00,39.4,23.2,28.85,SSW,202,9.2,15.0,52,0.00,CLR,,0.00,WeatherDisplay:10.37,2013-02-10 14:57:00,
2013-02-10 06:02:00,39.4,23.2,28.85,SSW,202,13.2,21.9,52,0.00,CLR,,0.00,WeatherDisplay:10.37,2013-02-10 15:02:00,
2013-02-10 06:07:00,39.4,22.7,28.88,SSW,202,13.8,15.0,51,0.00,CLR,,0.00,WeatherDisplay:10.37,2013-02-10 15:07:00,
2013-02-10 06:12:00,39.4,23.2,28.88,SSW,202,11.2,12.7,52,0.00,CLR,,0.00,WeatherDisplay:10.37,2013-02-10 15:12:00,
2013-02-10 06:17:00,39.4,23.2,28.88,South,180,15.6,24.2,52,0.00,CLR,,0.00,WeatherDisplay:10.37,2013-02-10 15:17:00,
2013-02-10 06:22:00,39.6,22.9,28.88,SSW,202,12.3,15.0,51,0.00,CLR,,0.00,WeatherDisplay:10.37,2013-02-10 15:22:00,
2013-02-10 06:27:00,39.6,22.9,28.88,South,180,19.0,24.2,51,0.00,CLR,,0.00,WeatherDisplay:10.37,2013-02-10 15:27:00,
2013-02-10 06:32:00,39.6,23.4,28.88,South,180,15.4,22.5,52,0.00,CLR,,0.00,WeatherDisplay:10.37,2013-02-10 15:32:00,
2013-02-10 06:37:00,39.4,23.2,28.88,SSW,202,17.6,19.6,52,0.00,CLR,,0.00,WeatherDisplay:10.37,2013-02-10 15:37:00,
2013-02-10 06:43:00,39.4,23.2,28.88,SSE,158,14.0,23.0,52,0.00,CLR,,0.00,WeatherDisplay:10.37,2013-02-10 15:43:00,
2013-02-10 06:48:00,39.2,23.0,28.88,SSW,202,17.5,24.2,52,0.00,CLR,,0.00,WeatherDisplay:10.37,2013-02-10 15:48:00,
2013-02-10 06:53:00,39.2,23.0,28.88,South,180,15.4,21.9,52,0.00,CLR,,0.00,WeatherDisplay:10.37,2013-02-10 15:53:00,
2013-02-10 06:58:00,39.2,23.0,28.88,South,180,12.3,16.1,52,0.00,CLR,,0.00,WeatherDisplay:10.37,2013-02-10 15:58:00,
2013-02-10 07:03:00,39.0,22.9,28.88,South,180,15.6,24.2,52,0.00,CLR,,0.00,WeatherDisplay:10.37,2013-02-10 16:03:00,
2013-02-10 07:08:00,38.8,23.2,28.88,South,180,15.4,19.6,53,0.00,CLR,,0.00,WeatherDisplay:10.37,2013-02-10 16:08:00,
2013-02-10 07:13:00,38.7,23.0,28.88,SSE,158,21.5,27.6,53,0.00,CLR,,0.00,WeatherDisplay:10.37,2013-02-10 16:13:00,
2013-02-10 07:18:00,38.7,23.0,28.88,South,180,13.0,19.6,53,0.00,CLR,,0.00,WeatherDisplay:10.37,2013-02-10 16:18:00,
2013-02-10 07:23:00,38.5,23.3,28.88,SSE,158,11.2,15.0,54,0.00,CLR,,0.00,WeatherDisplay:10.37,2013-02-10 16:23:00,
2013-02-10 07:28:00,38.5,23.3,28.88,SSE,158,14.3,16.1,54,0.00,CLR,,0.00,WeatherDisplay:10.37,2013-02-10 16:28:00,
2013-02-10 07:33:00,38.5,23.3,28.88,SSE,158,13.5,13.8,54,0.00,CLR,,0.00,WeatherDisplay:10.37,2013-02-10 16:33:00,
2013-02-10 07:38:00,38.5,23.3,28.85,SSE,158,13.2,19.7,54,0.00,CLR,,0.00,WeatherDisplay:10.37,2013-02-10 16:38:00,
2013-02-10 07:43:00,38.5,23.3,28.85,South,180,13.2,26.5,54,0.00,CLR,,0.00,WeatherDisplay:10.37,2013-02-10 16:43:00,
2013-02-10 07:48:00,38.7,23.4,28.85,SSE,158,17.6,26.5,54,0.00,CLR,,0.00,WeatherDisplay:10.37,2013-02-10 16:48:00,
2013-02-10 07:53:00,38.7,23.4,28.88,SSE,158,15.4,21.9,54,0.00,CLR,,0.00,WeatherDisplay:10.37,2013-02-10 16:53:00,
2013-02-10 07:58:00,38.8,23.6,28.88,SSE,158,19.0,28.8,54,0.00,CLR,,0.00,WeatherDisplay:10.37,2013-02-10 16:58:00,
2013-02-10 08:03:00,38.8,23.6,28.88,SSE,158,22.1,29.9,54,0.00,CLR,,0.00,WeatherDisplay:10.37,2013-02-10 17:03:00,
2013-02-10 08:08:00,38.8,23.6,28.88,South,180,13.2,16.1,54,0.00,CLR,,0.00,WeatherDisplay:10.37,2013-02-10 17:08:00,
2013-02-10 08:13:00,39.2,23.5,28.88,ESE,112,23.2,27.6,53,0.00,CLR,,0.00,WeatherDisplay:10.37,2013-02-10 17:13:00,
2013-02-10 08:18:00,39.0,23.3,28.88,SSW,202,17.3,25.3,53,0.00,CLR,,0.00,WeatherDisplay:10.37,2013-02-10 17:18:00,
2013-02-10 08:23:00,38.8,23.2,28.88,SSE,158,9.7,17.3,53,0.00,CLR,,0.00,WeatherDisplay:10.37,2013-02-10 17:23:00,
2013-02-10 08:28:00,38.8,23.2,28.88,SE,135,15.6,19.6,53,0.00,CLR,,0.00,WeatherDisplay:10.37,2013-02-10 17:28:00,
2013-02-10 08:33:00,39.2,23.5,28.88,South,180,17.0,23.0,53,0.00,CLR,,0.00,WeatherDisplay:10.37,2013-02-10 17:33:00,
2013-02-10 08:38:00,39.0,23.3,28.88,SSE,158,13.0,17.3,53,0.00,CLR,,0.00,WeatherDisplay:10.37,2013-02-10 17:38:00,
2013-02-10 08:43:00,38.8,23.2,28.88,ESE,112,9.2,12.7,53,0.00,CLR,,0.00,WeatherDisplay:10.37,2013-02-10 17:43:00,
2013-02-10 08:48:00,39.0,23.3,28.88,SE,135,12.3,15.0,53,0.00,CLR,,0.00,WeatherDisplay:10.37,2013-02-10 17:48:00,
2013-02-10 08:53:00,39.2,23.5,28.88,East,90,8.7,13.8,53,0.00,CLR,,0.00,WeatherDisplay:10.37,2013-02-10 17:53:00,
2013-02-10 08:58:00,39.4,23.7,28.88,SSE,158,10.0,13.8,53,0.00,CLR,,0.00,WeatherDisplay:10.37,2013-02-10 17:58:00,
2013-02-10 09:03:00,39.4,23.2,28.88,South,180,4.9,5.8,52,0.00,CLR,,0.00,WeatherDisplay:10.37,2013-02-10 18:03:00,
2013-02-10 09:08:00,39.4,23.7,28.91,ESE,112,17.0,23.0,53,0.00,CLR,,0.00,WeatherDisplay:10.37,2013-02-10 18:08:00,
2013-02-10 09:13:00,39.4,23.7,28.91,SE,135,10.9,12.7,53,0.00,CLR,,0.00,WeatherDisplay:10.37,2013-02-10 18:13:00,
2013-02-10 09:18:00,39.4,23.7,28.91,East,90,4.7,5.8,53,0.00,CLR,,0.00,WeatherDisplay:10.37,2013-02-10 18:18:00,
2013-02-10 09:23:00,39.4,23.7,28.91,SSE,158,10.7,15.0,53,0.00,CLR,,0.00,WeatherDisplay:10.37,2013-02-10 18:23:00,
2013-02-10 09:28:00,39.2,23.5,28.91,SSE,158,5.4,5.8,53,0.00,CLR,,0.00,WeatherDisplay:10.37,2013-02-10 18:28:00,
2013-02-10 09:33:00,39.2,23.9,28.91,ENE,68,5.6,5.8,54,0.00,CLR,,0.00,WeatherDisplay:10.37,2013-02-10 18:33:00,
2013-02-10 09:38:00,38.8,24.0,28.91,SSE,158,7.1,7.1,55,0.00,CLR,,0.00,WeatherDisplay:10.37,2013-02-10 18:38:00,
2013-02-10 09:43:00,38.7,24.3,28.91,ESE,112,8.1,9.2,56,0.00,CLR,,0.00,WeatherDisplay:10.37,2013-02-10 18:43:00,
2013-02-10 09:48:00,38.8,24.0,28.91,SSE,158,6.2,8.1,55,0.00,CLR,,0.00,WeatherDisplay:10.37,2013-02-10 18:48:00,
2013-02-10 09:53:00,38.8,24.0,28.88,SSE,158,18.1,20.7,55,0.00,CLR,,0.00,WeatherDisplay:10.37,2013-02-10 18:53:00,
2013-02-10 09:58:00,39.2,24.4,28.88,SSW,202,6.2,6.2,55,0.00,CLR,,0.00,WeatherDisplay:10.37,2013-02-10 18:58:00,
2013-02-10 10:03:00,39.0,24.2,28.88,South,180,9.0,9.0,55,0.00,CLR,,0.00,WeatherDisplay:10.37,2013-02-10 19:03:00,
2013-02-10 10:08:00,39.0,24.2,28.91,SSW,202,9.0,9.2,55,0.00,CLR,,0.00,WeatherDisplay:10.37,2013-02-10 19:08:00,
2013-02-10 10:13:00,39.2,23.9,28.91,SSE,158,7.8,16.1,54,0.00,CLR,,0.00,WeatherDisplay:10.37,2013-02-10 19:13:00,
2013-02-10 10:18:00,39.4,23.7,28.91,WSW,248,11.4,17.3,53,0.00,CLR,,0.00,WeatherDisplay:10.37,2013-02-10 19:18:00,
2013-02-10 10:23:00,39.4,24.1,28.91,SSE,158,6.2,15.2,54,0.00,CLR,,0.00,WeatherDisplay:10.37,2013-02-10 19:23:00,
2013-02-10 10:28:00,39.6,23.8,28.91,SSE,158,11.8,15.0,53,0.00,CLR,,0.00,WeatherDisplay:10.37,2013-02-10 19:28:00,
2013-02-10 10:33:00,39.7,24.0,28.91,SW,225,10.0,13.8,53,0.00,CLR,,0.00,WeatherDisplay:10.37,2013-02-10 19:33:00,
2013-02-10 10:38:00,39.7,24.0,28.94,South,180,9.2,17.3,53,0.00,CLR,,0.00,WeatherDisplay:10.37,2013-02-10 19:38:00,
2013-02-10 10:43:00,39.7,24.0,28.94,SSW,202,8.5,12.7,53,0.00,CLR,,0.00,WeatherDisplay:10.37,2013-02-10 19:43:00,
2013-02-10 10:48:00,39.7,23.5,28.94,SSW,202,16.1,19.6,52,0.00,CLR,,0.00,WeatherDisplay:10.37,2013-02-10 19:48:00,
2013-02-10 10:53:00,39.9,23.7,28.94,SE,135,14.0,20.7,52,0.00,CLR,,0.00,WeatherDisplay:10.37,2013-02-10 19:53:00,
2013-02-10 10:58:00,39.9,23.7,28.94,SSE,158,11.2,18.4,52,0.00,CLR,,0.00,WeatherDisplay:10.37,2013-02-10 19:58:00,
2013-02-10 11:03:00,39.9,23.7,28.94,SSE,158,8.5,10.4,52,0.00,CLR,,0.00,WeatherDisplay:10.37,2013-02-10 20:03:00,
2013-02-10 11:08:00,39.9,23.7,28.94,SSE,158,12.3,15.0,52,0.00,CLR,,0.00,WeatherDisplay:10.37,2013-02-10 20:08:00,
2013-02-10 11:13:00,39.9,23.7,28.94,SSW,202,8.5,17.5,52,0.00,CLR,,0.00,WeatherDisplay:10.37,2013-02-10 20:13:00,
2013-02-10 11:18:00,39.9,23.7,28.94,SSW,202,14.0,15.0,52,0.00,CLR,,0.00,WeatherDisplay:10.37,2013-02-10 20:18:00,
2013-02-10 11:24:00,39.9,23.7,28.94,SSW,202,11.4,15.0,52,0.00,CLR,,0.00,WeatherDisplay:10.37,2013-02-10 20:24:00,
2013-02-10 11:29:00,39.9,23.7,28.94,SSW,202,10.5,18.4,52,0.00,CLR,,0.00,WeatherDisplay:10.37,2013-02-10 20:29:00,
2013-02-10 11:34:00,39.9,23.7,28.94,SSW,202,15.9,21.9,52,0.00,CLR,,0.00,WeatherDisplay:10.37,2013-02-10 20:34:00,
2013-02-10 11:39:00,39.9,23.7,28.97,SSW,202,12.5,15.0,52,0.00,CLR,,0.00,WeatherDisplay:10.37,2013-02-10 20:39:00,
2013-02-10 11:44:00,39.9,24.2,28.97,SSW,202,10.7,16.1,53,0.00,CLR,,0.00,WeatherDisplay:10.37,2013-02-10 20:44:00,
2013-02-10 11:49:00,39.9,24.2,28.97,South,180,14.0,20.7,53,0.00,CLR,,0.00,WeatherDisplay:10.37,2013-02-10 20:49:00,
2013-02-10 11:54:00,39.7,24.0,28.97,SSW,202,13.7,19.6,53,0.00,CLR,,0.00,WeatherDisplay:10.37,2013-02-10 20:54:00,
2013-02-10 11:59:00,39.7,24.0,28.97,SSW,202,13.0,15.4,53,0.00,CLR,,0.00,WeatherDisplay:10.37,2013-02-10 20:59:00,
2013-02-10 12:04:00,39.7,24.0,28.97,SSW,202,11.2,12.7,53,0.00,CLR,,0.00,WeatherDisplay:10.37,2013-02-10 21:04:00,
2013-02-10 12:09:00,39.7,24.0,29.00,SSW,202,13.7,18.4,53,0.00,CLR,,0.00,WeatherDisplay:10.37,2013-02-10 21:09:00,
2013-02-10 12:14:00,39.6,23.8,29.00,SSW,202,9.8,16.1,53,0.00,CLR,,0.00,WeatherDisplay:10.37,2013-02-10 21:14:00,
2013-02-10 12:19:00,39.6,24.3,29.00,SSE,158,10.9,12.7,54,0.00,CLR,,0.00,WeatherDisplay:10.37,2013-02-10 21:19:00,
2013-02-10 12:24:00,39.4,24.1,29.00,SSE,158,17.6,28.8,54,0.00,CLR,,0.00,WeatherDisplay:10.37,2013-02-10 21:24:00,
2013-02-10 12:29:00,39.2,23.9,29.00,SSW,202,11.8,19.6,54,0.00,CLR,,0.00,WeatherDisplay:10.37,2013-02-10 21:29:00,
2013-02-10 12:34:00,39.0,24.6,29.00,South,180,13.8,26.5,56,0.00,CLR,,0.00,WeatherDisplay:10.37,2013-02-10 21:34:00,
2013-02-10 12:39:00,38.8,24.9,28.97,South,180,17.5,17.5,57,0.00,CLR,,0.00,WeatherDisplay:10.37,2013-02-10 21:39:00,
2013-02-10 12:44:00,38.5,26.2,28.97,South,180,23.2,29.9,61,0.00,CLR,,0.00,WeatherDisplay:10.37,2013-02-10 21:44:00,
2013-02-10 12:49:00,37.6,28.3,28.97,SSW,202,15.4,23.0,69,0.00,CLR,,0.00,WeatherDisplay:10.37,2013-02-10 21:49:00,
2013-02-10 12:54:00,37.0,29.2,29.00,South,180,17.3,24.2,73,0.00,CLR,,0.00,WeatherDisplay:10.37,2013-02-10 21:54:00,
2013-02-10 12:59:00,37.0,29.2,29.00,South,180,19.9,20.7,73,0.00,CLR,,0.00,WeatherDisplay:10.37,2013-02-10 21:59:00,
2013-02-10 13:04:00,37.0,29.2,29.00,SSE,158,16.1,23.0,73,0.00,CLR,,0.00,WeatherDisplay:10.37,2013-02-10 22:04:00,
2013-02-10 13:09:00,37.4,28.9,29.00,SSW,202,11.4,15.0,71,0.00,CLR,,0.00,WeatherDisplay:10.37,2013-02-10 22:09:00,
2013-02-10 13:14:00,37.6,28.3,29.00,South,180,7.1,10.4,69,0.00,CLR,,0.00,WeatherDisplay:10.37,2013-02-10 22:14:00,
2013-02-10 13:19:00,37.9,27.2,29.00,SSW,202,13.2,24.2,65,0.00,CLR,,0.00,WeatherDisplay:10.37,2013-02-10 22:19:00,
2013-02-10 13:24:00,38.3,25.6,29.00,SSW,202,6.9,12.7,60,0.00,CLR,,0.00,WeatherDisplay:10.37,2013-02-10 22:24:00,
2013-02-10 13:29:00,38.5,25.4,29.00,SSE,158,9.0,16.1,59,0.00,CLR,,0.00,WeatherDisplay:10.37,2013-02-10 22:29:00,
2013-02-10 13:34:00,38.5,24.1,29.00,South,180,14.0,17.3,56,0.00,CLR,,0.00,WeatherDisplay:10.37,2013-02-10 22:34:00,
2013-02-10 13:39:00,38.5,23.7,29.02,SSE,158,15.9,25.3,55,0.00,CLR,,0.00,WeatherDisplay:10.37,2013-02-10 22:39:00,
2013-02-10 13:44:00,38.1,22.9,29.02,South,180,17.3,23.0,54,0.00,CLR,,0.00,WeatherDisplay:10.37,2013-02-10 22:44:00,
2013-02-10 13:49:00,37.8,22.6,29.02,SSW,202,17.6,17.6,54,0.00,CLR,,0.00,WeatherDisplay:10.37,2013-02-10 22:49:00,
2013-02-10 13:54:00,37.4,22.3,29.00,SSE,158,22.1,29.9,54,0.00,CLR,,0.00,WeatherDisplay:10.37,2013-02-10 22:54:00,
2013-02-10 13:59:00,37.0,22.8,29.00,SSW,202,13.8,26.5,56,0.00,CLR,,0.00,WeatherDisplay:10.37,2013-02-10 22:59:00,
2013-02-10 14:04:00,36.9,22.6,29.00,South,180,12.5,17.3,56,0.00,CLR,,0.00,WeatherDisplay:10.37,2013-02-10 23:04:00,
2013-02-10 14:09:00,36.7,22.9,29.02,SSE,158,15.4,25.3,57,0.00,CLR,,0.00,WeatherDisplay:10.37,2013-02-10 23:09:00,
2013-02-10 14:14:00,36.5,23.1,29.02,SSW,202,15.9,19.6,58,0.00,CLR,,0.00,WeatherDisplay:10.37,2013-02-10 23:14:00,
2013-02-10 14:19:00,36.5,22.7,29.02,SSW,202,11.2,14.7,57,0.00,CLR,,0.00,WeatherDisplay:10.37,2013-02-10 23:19:00,
2013-02-10 14:24:00,36.0,23.4,29.06,SSW,202,11.8,15.0,60,0.00,CLR,,0.00,WeatherDisplay:10.37,2013-02-10 23:24:00,
2013-02-10 14:29:00,35.6,23.5,29.06,SSW,202,16.1,21.9,61,0.00,CLR,,0.00,WeatherDisplay:10.37,2013-02-10 23:29:00,
2013-02-10 14:34:00,35.4,23.7,29.06,SSW,202,15.6,25.3,62,0.00,CLR,,0.00,WeatherDisplay:10.37,2013-02-10 23:34:00,
2013-02-10 14:39:00,35.2,23.5,29.08,SSW,202,13.8,20.7,62,0.00,CLR,,0.00,WeatherDisplay:10.37,2013-02-10 23:39:00,
2013-02-10 14:44:00,35.2,23.1,29.08,South,180,20.6,26.5,61,0.00,CLR,,0.00,WeatherDisplay:10.37,2013-02-10 23:44:00,
2013-02-10 14:49:00,35.2,22.7,29.08,South,180,21.0,27.6,60,0.00,CLR,,0.00,WeatherDisplay:10.37,2013-02-10 23:49:00,
2013-02-10 14:54:00,35.1,22.6,29.02,SSE,158,17.3,28.8,60,0.00,CLR,,0.00,WeatherDisplay:10.37,2013-02-10 23:54:00,
2013-02-10 14:59:00,35.2,22.3,29.02,SSW,202,16.3,24.2,59,0.00,CLR,,0.00,WeatherDisplay:10.37,2013-02-10 23:59:00,
2013-02-10 15:04:00,35.1,22.2,29.02,SSE,158,20.1,31.1,59,0.00,CLR,,0.00,WeatherDisplay:10.37,2013-02-11 00:04:00,
2013-02-10 15:09:00,35.1,21.8,29.08,SSW,202,21.9,34.5,58,0.00,CLR,,0.00,WeatherDisplay:10.37,2013-02-11 00:09:00,
2013-02-10 15:14:00,35.1,21.8,29.08,SSW,202,14.7,23.0,58,0.00,CLR,,0.00,WeatherDisplay:10.37,2013-02-11 00:14:00,
2013-02-10 15:19:00,35.2,21.1,29.08,WSW,248,17.5,30.6,56,0.00,CLR,,0.00,WeatherDisplay:10.37,2013-02-11 00:19:00,
2013-02-10 15:24:00,34.9,21.6,29.08,SSW,202,12.5,17.3,58,0.00,CLR,,0.00,WeatherDisplay:10.37,2013-02-11 00:24:00,
2013-02-10 15:29:00,34.9,21.2,29.08,SSW,202,14.0,20.7,57,0.00,CLR,,0.00,WeatherDisplay:10.37,2013-02-11 00:29:00,
2013-02-10 15:34:00,34.9,20.8,29.08,South,180,16.1,23.0,56,0.00,CLR,,0.00,WeatherDisplay:10.37,2013-02-11 00:34:00,
2013-02-10 15:39:00,34.9,20.3,29.11,SSE,158,21.3,28.8,55,0.00,CLR,,0.00,WeatherDisplay:10.37,2013-02-11 00:39:00,
2013-02-10 15:44:00,34.9,20.3,29.11,South,180,11.8,23.0,55,0.00,CLR,,0.00,WeatherDisplay:10.37,2013-02-11 00:44:00,
2013-02-10 15:49:00,34.7,19.7,29.11,SSW,202,19.9,24.2,54,0.00,CLR,,0.00,WeatherDisplay:10.37,2013-02-11 00:49:00,
2013-02-10 15:54:00,34.7,19.7,29.11,SSW,202,13.5,17.3,54,0.00,CLR,,0.00,WeatherDisplay:10.37,2013-02-11 00:54:00,
2013-02-10 15:59:00,34.7,19.7,29.11,SSE,158,11.8,13.8,54,0.00,CLR,,0.00,WeatherDisplay:10.37,2013-02-11 00:59:00,
2013-02-10 16:04:00,34.7,19.7,29.11,South,180,9.2,22.3,54,0.00,CLR,,0.00,WeatherDisplay:10.37,2013-02-11 01:04:00,
2013-02-10 16:09:00,34.5,19.1,29.11,SSW,202,13.5,21.9,53,0.00,CLR,,0.00,WeatherDisplay:10.37,2013-02-11 01:09:00,
2013-02-10 16:14:00,34.3,19.4,29.11,SW,225,15.9,25.3,54,0.00,CLR,,0.00,WeatherDisplay:10.37,2013-02-11 01:14:00,
2013-02-10 16:19:00,34.3,19.4,29.11,SW,225,12.8,25.3,54,0.00,CLR,,0.00,WeatherDisplay:10.37,2013-02-11 01:19:00,
2013-02-10 16:24:00,34.2,19.2,29.11,SSW,202,15.2,19.6,54,0.00,CLR,,0.00,WeatherDisplay:10.37,2013-02-11 01:24:00,
2013-02-10 16:29:00,34.0,19.1,29.11,SSW,202,12.3,17.3,54,0.00,CLR,,0.00,WeatherDisplay:10.37,2013-02-11 01:29:00,
2013-02-10 16:34:00,33.8,18.9,29.11,SSW,202,14.0,19.7,54,0.00,CLR,,0.00,WeatherDisplay:10.37,2013-02-11 01:34:00,
2013-02-10 16:39:00,33.8,18.9,29.14,SSE,158,13.0,23.0,54,0.00,CLR,,0.00,WeatherDisplay:10.37,2013-02-11 01:39:00,
2013-02-10 16:45:00,33.6,19.2,29.14,SSW,202,15.9,21.9,55,0.00,CLR,,0.00,WeatherDisplay:10.37,2013-02-11 01:45:00,
2013-02-10 16:49:00,33.6,19.2,29.14,SSW,202,12.8,17.3,55,0.00,CLR,,0.00,WeatherDisplay:10.37,2013-02-11 01:49:00,
2013-02-10 16:55:00,33.6,19.2,29.17,SSE,158,12.1,12.7,55,0.00,CLR,,0.00,WeatherDisplay:10.37,2013-02-11 01:55:00,
2013-02-10 17:00:00,33.3,18.8,29.17,South,180,11.2,21.9,55,0.00,CLR,,0.00,WeatherDisplay:10.37,2013-02-11 02:00:00,
2013-02-10 17:05:00,33.3,18.8,29.17,SSW,202,13.5,17.3,55,0.00,CLR,,0.00,WeatherDisplay:10.37,2013-02-11 02:05:00,
2013-02-10 17:10:00,33.1,18.7,29.17,SSE,158,12.1,23.2,55,0.00,CLR,,0.00,WeatherDisplay:10.37,2013-02-11 02:10:00,
2013-02-10 17:15:00,33.1,18.7,29.17,SSW,202,12.3,15.0,55,0.00,CLR,,0.00,WeatherDisplay:10.37,2013-02-11 02:15:00,
2013-02-10 17:20:00,33.1,18.7,29.17,SSW,202,11.2,13.8,55,0.00,CLR,,0.00,WeatherDisplay:10.37,2013-02-11 02:20:00,
2013-02-10 17:25:00,31.5,17.6,29.17,WNW,292,6.2,8.1,56,0.00,CLR,,0.00,WeatherDisplay:10.37,2013-02-11 02:25:00,
2013-02-10 17:30:00,30.7,16.9,29.17,NNE,22,4.9,5.8,56,0.00,CLR,,0.00,WeatherDisplay:10.37,2013-02-11 02:30:00,
2013-02-10 17:35:00,29.5,16.5,29.17,NNW,338,4.9,11.5,58,0.00,CLR,,0.00,WeatherDisplay:10.37,2013-02-11 02:35:00,
2013-02-10 17:40:00,28.8,16.6,29.17,East,90,3.6,4.6,60,0.00,CLR,,0.00,WeatherDisplay:10.37,2013-02-11 02:40:00,
2013-02-10 17:45:00,28.2,16.9,29.17,NNW,338,3.1,5.8,62,0.00,CLR,,0.00,WeatherDisplay:10.37,2013-02-11 02:45:00,
2013-02-10 17:50:00,27.9,17.3,29.17,NNE,22,4.7,5.8,64,0.00,CLR,,0.00,WeatherDisplay:10.37,2013-02-11 02:50:00,
2013-02-10 17:55:00,27.7,18.1,29.17,NNW,338,6.4,10.4,67,0.00,CLR,,0.00,WeatherDisplay:10.37,2013-02-11 02:55:00,
2013-02-10 18:00:00,27.5,18.3,29.17,NW,315,4.9,6.9,68,0.00,CLR,,0.00,WeatherDisplay:10.37,2013-02-11 03:00:00,
2013-02-10 18:05:00,27.1,17.6,29.17,SSE,158,4.5,6.9,67,0.00,CLR,,0.00,WeatherDisplay:10.37,2013-02-11 03:05:00,
2013-02-10 18:10:00,27.0,18.1,29.20,West,270,2.4,4.6,69,0.00,CLR,,0.00,WeatherDisplay:10.37,2013-02-11 03:10:00,
2013-02-10 18:15:00,26.6,17.8,29.20,North,0,2.0,3.5,69,0.00,CLR,,0.00,WeatherDisplay:10.37,2013-02-11 03:15:00,
2013-02-10 18:20:00,26.4,17.3,29.20,West,270,2.6,3.5,68,0.00,CLR,,0.00,WeatherDisplay:10.37,2013-02-11 03:20:00,
2013-02-10 18:25:00,26.4,17.3,29.20,ENE,68,2.6,3.5,68,0.00,CLR,,0.00,WeatherDisplay:10.37,2013-02-11 03:25:00,
2013-02-10 18:30:00,26.2,17.4,29.20,NNW,338,3.1,3.5,69,0.00,CLR,,0.00,WeatherDisplay:10.37,2013-02-11 03:30:00,
2013-02-10 18:35:00,26.1,17.6,29.20,North,0,3.6,4.3,70,0.00,CLR,,0.00,WeatherDisplay:10.37,2013-02-11 03:35:00,
2013-02-10 18:40:00,26.1,17.3,29.20,WNW,292,4.9,5.8,69,0.00,CLR,,0.00,WeatherDisplay:10.37,2013-02-11 03:40:00,
2013-02-10 18:45:00,26.2,17.4,29.20,NNE,22,2.4,4.6,69,0.00,CLR,,0.00,WeatherDisplay:10.37,2013-02-11 03:45:00,
2013-02-10 18:50:00,26.4,17.6,29.20,NE,45,4.5,4.5,69,0.00,CLR,,0.00,WeatherDisplay:10.37,2013-02-11 03:50:00,
2013-02-10 18:55:00,26.4,18.0,29.23,ENE,68,4.9,8.1,70,0.00,CLR,,0.00,WeatherDisplay:10.37,2013-02-11 03:55:00,
2013-02-10 19:00:00,26.2,17.8,29.23,NNE,22,6.2,6.2,70,0.00,CLR,,0.00,WeatherDisplay:10.37,2013-02-11 04:00:00,
2013-02-10 19:05:00,26.1,17.3,29.23,NNE,22,5.6,6.0,69,0.00,CLR,,0.00,WeatherDisplay:10.37,2013-02-11 04:05:00,
2013-02-10 19:10:00,26.1,17.9,29.23,NE,45,7.1,9.2,71,0.00,CLR,,0.00,WeatherDisplay:10.37,2013-02-11 04:10:00,
2013-02-10 19:15:00,25.7,17.3,29.23,North,0,6.0,6.9,70,0.00,CLR,,0.00,WeatherDisplay:10.37,2013-02-11 04:15:00,
2013-02-10 19:20:00,25.3,16.9,29.23,NNW,338,8.7,10.4,70,0.00,CLR,,0.00,WeatherDisplay:10.37,2013-02-11 04:20:00,
2013-02-10 19:25:00,25.2,17.7,29.23,NNW,338,6.0,6.0,73,0.00,CLR,,0.00,WeatherDisplay:10.37,2013-02-11 04:25:00,
2013-02-10 19:30:00,25.0,17.2,29.23,NNW,338,7.1,8.1,72,0.00,CLR,,0.00,WeatherDisplay:10.37,2013-02-11 04:30:00,
2013-02-10 19:35:00,24.8,18.0,29.23,NNW,338,6.9,8.1,75,0.00,CLR,,0.00,WeatherDisplay:10.37,2013-02-11 04:35:00,
2013-02-10 19:40:00,24.6,17.8,29.23,NNW,338,4.5,6.9,75,0.00,CLR,,0.00,WeatherDisplay:10.37,2013-02-11 04:40:00,
2013-02-10 19:45:00,24.4,17.6,29.23,NNW,338,4.9,8.1,75,0.00,CLR,,0.00,WeatherDisplay:10.37,2013-02-11 04:45:00,
2013-02-10 19:50:00,24.3,18.1,29.23,NNW,338,4.7,5.8,77,0.00,CLR,,0.00,WeatherDisplay:10.37,2013-02-11 04:50:00,
2013-02-10 19:55:00,24.3,17.8,29.23,NNW,338,4.5,4.6,76,0.00,CLR,,0.00,WeatherDisplay:10.37,2013-02-11 04:55:00,
2013-02-10 20:00:00,24.1,17.0,29.23,NW,315,5.9,6.9,74,0.00,CLR,,0.00,WeatherDisplay:10.37,2013-02-11 05:00:00,
2013-02-10 20:05:00,24.1,17.9,29.23,NNW,338,5.4,6.9,77,0.00,CLR,,0.00,WeatherDisplay:10.37,2013-02-11 05:05:00,
2013-02-10 20:10:00,23.9,18.3,29.26,NNW,338,3.8,5.8,79,0.00,CLR,,0.00,WeatherDisplay:10.37,2013-02-11 05:10:00,
2013-02-10 20:15:00,23.9,18.6,29.26,NNW,338,3.3,4.6,80,0.00,CLR,,0.00,WeatherDisplay:10.37,2013-02-11 05:15:00,
2013-02-10 20:20:00,24.1,18.8,29.26,NE,45,4.0,4.6,80,0.00,CLR,,0.00,WeatherDisplay:10.37,2013-02-11 05:20:00,
2013-02-10 20:25:00,24.1,18.2,29.26,WNW,292,0.9,4.6,78,0.00,CLR,,0.00,WeatherDisplay:10.37,2013-02-11 05:25:00,
2013-02-10 20:30:00,24.1,18.2,29.26,NNW,338,2.4,3.5,78,0.00,CLR,,0.00,WeatherDisplay:10.37,2013-02-11 05:30:00,
2013-02-10 20:35:00,24.3,19.0,29.26,NNW,338,2.2,2.3,80,0.00,CLR,,0.00,WeatherDisplay:10.37,2013-02-11 05:35:00,
2013-02-10 20:40:00,24.1,17.9,29.29,NNW,338,1.6,2.3,77,0.00,CLR,,0.00,WeatherDisplay:10.37,2013-02-11 05:40:00,
2013-02-10 20:45:00,24.1,17.9,29.29,WNW,292,1.6,2.4,77,0.00,CLR,,0.00,WeatherDisplay:10.37,2013-02-11 05:45:00,
2013-02-10 20:50:00,24.1,18.2,29.29,WNW,292,2.6,3.5,78,0.00,CLR,,0.00,WeatherDisplay:10.37,2013-02-11 05:50:00,
2013-02-10 20:55:00,24.1,17.9,29.26,WNW,292,0.0,2.3,77,0.00,CLR,,0.00,WeatherDisplay:10.37,2013-02-11 05:55:00,
2013-02-10 21:00:00,23.9,18.0,29.26,WNW,292,1.6,2.3,78,0.00,CLR,,0.00,WeatherDisplay:10.37,2013-02-11 06:00:00,
2013-02-10 21:05:00,23.7,17.6,29.26,WNW,292,0.0,0.0,77,0.00,CLR,,0.00,WeatherDisplay:10.37,2013-02-11 06:05:00,
2013-02-10 21:10:00,23.5,17.1,29.29,WNW,292,0.0,0.0,76,0.00,CLR,,0.00,WeatherDisplay:10.37,2013-02-11 06:10:00,
2013-02-10 21:15:00,23.0,16.6,29.29,SE,135,1.1,1.4,76,0.00,CLR,,0.00,WeatherDisplay:10.37,2013-02-11 06:15:00,
2013-02-10 21:20:00,22.8,16.4,29.29,ESE,112,0.0,1.1,76,0.00,CLR,,0.00,WeatherDisplay:10.37,2013-02-11 06:20:00,
2013-02-10 21:25:00,22.6,16.5,29.29,ESE,112,0.0,0.0,77,0.00,CLR,,0.00,WeatherDisplay:10.37,2013-02-11 06:25:00,
2013-02-10 21:30:00,22.3,15.9,29.29,SSE,158,0.0,0.0,76,0.00,CLR,,0.00,WeatherDisplay:10.37,2013-02-11 06:30:00,
2013-02-10 21:35:00,21.9,15.2,29.29,SSE,158,0.0,0.0,75,0.00,CLR,,0.00,WeatherDisplay:10.37,2013-02-11 06:35:00,
2013-02-10 21:40:00,21.7,15.3,29.29,SE,135,0.0,0.0,76,0.00,CLR,,0.00,WeatherDisplay:10.37,2013-02-11 06:40:00,
2013-02-10 21:45:00,21.6,15.2,29.29,SSE,158,0.0,0.0,76,0.00,CLR,,0.00,WeatherDisplay:10.37,2013-02-11 06:45:00,
2013-02-10 21:50:00,21.2,14.8,29.29,SSE,158,1.1,2.3,76,0.00,CLR,,0.00,WeatherDisplay:10.37,2013-02-11 06:50:00,
2013-02-10 21:55:00,21.0,14.6,29.29,SSE,158,0.0,0.0,76,0.00,CLR,,0.00,WeatherDisplay:10.37,2013-02-11 06:55:00,
2013-02-10 22:00:00,20.7,14.3,29.29,SSE,158,1.1,2.3,76,0.00,CLR,,0.00,WeatherDisplay:10.37,2013-02-11 07:00:00,
2013-02-10 22:05:00,20.3,14.2,29.29,South,180,0.0,0.0,77,0.00,CLR,,0.00,WeatherDisplay:10.37,2013-02-11 07:05:00,
2013-02-10 22:10:00,20.1,13.8,29.32,SSW,202,0.0,1.1,76,0.00,CLR,,0.00,WeatherDisplay:10.37,2013-02-11 07:10:00,
2013-02-10 22:15:00,19.9,14.8,29.32,West,270,0.0,0.0,80,0.00,CLR,,0.00,WeatherDisplay:10.37,2013-02-11 07:15:00,
2013-02-10 22:20:00,19.6,14.4,29.32,WSW,248,1.6,2.3,80,0.00,CLR,,0.00,WeatherDisplay:10.37,2013-02-11 07:20:00,
2013-02-10 22:25:00,19.6,14.1,29.32,West,270,0.9,1.1,79,0.00,CLR,,0.00,WeatherDisplay:10.37,2013-02-11 07:25:00,
2013-02-10 22:30:00,19.4,13.9,29.32,West,270,0.9,1.1,79,0.00,CLR,,0.00,WeatherDisplay:10.37,2013-02-11 07:30:00,
2013-02-10 22:35:00,19.2,13.8,29.32,SSE,158,2.4,3.5,79,0.00,CLR,,0.00,WeatherDisplay:10.37,2013-02-11 07:35:00,
2013-02-10 22:40:00,19.2,14.1,29.32,WSW,248,0.0,0.0,80,0.00,CLR,,0.00,WeatherDisplay:10.37,2013-02-11 07:40:00,
2013-02-10 22:45:00,19.4,14.5,29.32,SSE,158,0.0,0.0,81,0.00,CLR,,0.00,WeatherDisplay:10.37,2013-02-11 07:45:00,
2013-02-10 22:50:00,19.4,14.5,29.32,West,270,0.0,0.0,81,0.00,CLR,,0.00,WeatherDisplay:10.37,2013-02-11 07:50:00,
2013-02-10 22:55:00,19.6,14.7,29.32,WNW,292,1.1,1.1,81,0.00,CLR,,0.00,WeatherDisplay:10.37,2013-02-11 07:55:00,
2013-02-10 23:00:00,19.6,14.7,29.32,WNW,292,0.0,0.0,81,0.00,CLR,,0.00,WeatherDisplay:10.37,2013-02-11 08:00:00,
2013-02-10 23:05:00,19.6,14.4,29.32,WNW,292,0.0,0.0,80,0.00,CLR,,0.00,WeatherDisplay:10.37,2013-02-11 08:05:00,
2013-02-10 23:10:00,19.6,14.4,29.35,WNW,292,0.0,0.0,80,0.00,CLR,,0.00,WeatherDisplay:10.37,2013-02-11 08:10:00,
2013-02-10 23:15:00,19.8,14.6,29.35,WNW,292,0.0,0.0,80,0.00,CLR,,0.00,WeatherDisplay:10.37,2013-02-11 08:15:00,
2013-02-10 23:20:00,19.8,15.2,29.35,SSW,202,0.0,1.1,82,0.00,CLR,,0.00,WeatherDisplay:10.37,2013-02-11 08:20:00,
2013-02-10 23:26:00,19.9,15.3,29.35,SSW,202,0.0,0.0,82,0.00,CLR,,0.00,WeatherDisplay:10.37,2013-02-11 08:26:00,
2013-02-10 23:31:00,20.3,15.7,29.35,West,270,1.6,2.3,82,0.00,CLR,,0.00,WeatherDisplay:10.37,2013-02-11 08:31:00,
2013-02-10 23:36:00,20.3,16.5,29.35,South,180,0.0,2.3,85,0.00,CLR,,0.00,WeatherDisplay:10.37,2013-02-11 08:36:00,
2013-02-10 23:41:00,20.5,16.1,29.35,West,270,0.0,0.0,83,0.00,CLR,,0.00,WeatherDisplay:10.37,2013-02-11 08:41:00,
2013-02-10 23:46:00,20.7,16.0,29.35,West,270,0.0,0.0,82,0.00,CLR,,0.00,WeatherDisplay:10.37,2013-02-11 08:46:00,
2013-02-10 23:51:00,20.7,16.0,29.35,SSE,158,0.0,0.0,82,0.00,CLR,,0.00,WeatherDisplay:10.37,2013-02-11 08:51:00,
2013-02-10 23:56:00,20.8,15.9,29.35,SSE,158,0.0,0.0,81,0.00,CLR,,0.00,WeatherDisplay:10.37,2013-02-11 08:56:00,